Location: Newark
(43.5831°N, 21.3381°E)
Time: 00:43:16
(UTC+00:00)

Envisat - Pass Details

Date: 12 December 2019
Orbit: 764 x 766 km, 98.1° (Epoch: 21 January)

Event Time Altitude Azimuth Distance (km) Brightness Sun altitude
Rises 05:05:01 0° 17° (NNE) 3,243 6.2 -9.4°
Reaches altitude 10° 05:07:23 10° 22° (NNE) 2,312 5.5 -9.0°
Maximum altitude 05:12:23 55° 100° (E) 917 3.9 -8.2°
Drops below altitude 10° 05:17:20 10° 178° (S) 2,294 5.9 -7.3°
Sets 05:19:40 0° 183° (S) 3,215 6.5 -7.0°
